Location: Unspecified
(49.9820°N, 20.4363°E)
Time: 05:05:20
(UTC+01:00)

ISS - Pass Details

Date: 15 January 2018
Orbit: 402 x 407 km, 51.6° (Epoch: 22 January)

Event Time Altitude Azimuth Distance (km) Brightness Sun altitude
Exits shadow 05:26:36 16° 195° (SSW) 1,147 -1.6 -19.3°
Drops below altitude 10° 05:27:56 10° 173° (S) 1,460 -0.8 -19.1°
Sets 05:30:25 0° 154° (SSE) 2,317 0.6 -18.7°
